Location: Spring Creek
(38.2870°N, 100.2160°W)
Time: 04:06:37
(UTC+00:00)

Tiangong - Visible Passes

Search period start: 03 October 2023 00:00
Search period end: 13 October 2023 00:00
Orbit: 371 x 384 km, 41.5° (Epoch: 02 October)

Date Brightness Start Highest point End Pass type
(mag) Time Alt. Az. Time Alt. Az. Time Alt. Az.
03 Oct -1.9 01:13:34 10° W 01:16:41 62° NNW 01:18:51 18° ENE visible
03 Oct 1.3 02:50:35 10° WNW 02:50:55 12° WNW 02:50:55 12° WNW visible
04 Oct -1.5 01:48:29 10° WNW 01:51:30 44° N 01:51:49 42° NNE visible
05 Oct -1.5 00:46:16 10° W 00:49:19 49° N 00:52:22 10° ENE visible
05 Oct 0.2 02:23:11 10° WNW 02:24:39 24° WNW 02:24:39 24° WNW visible
06 Oct -1.5 01:20:56 10° WNW 01:23:58 44° N 01:25:20 26° ENE visible
07 Oct -1.6 01:55:21 10° WNW 01:57:59 54° NW 01:57:59 54° NW visible
08 Oct -1.7 00:52:57 10° WNW 00:56:00 49° N 00:58:32 14° E visible
08 Oct 0.8 02:29:39 10° WNW 02:30:34 18° W 02:30:34 18° W visible
09 Oct -2.3 01:27:07 10° WNW 01:30:15 89° N 01:31:04 46° ESE visible
10 Oct -0.5 02:01:19 10° W 02:03:35 30° SW 02:03:35 30° SW visible
11 Oct -1.8 00:58:30 10° WNW 01:01:36 61° SSW 01:04:04 15° SE visible
12 Oct 0.0 01:32:47 10° W 01:35:13 21° SSW 01:36:36 16° S visible
